Вернуться в каталог

FENGYUN 1C DEB

АктивенPO
NORAD 30934·DEBRIS·🇨🇳 China

Запущен May 10, 1999 с Taiyuan Satellite Launch Center

Loading…

Ближайшие Пролёты (ближайшие 24 часа)

TLE

СвежийSource: Space-Track

Эпоха: Sep 14, 2026, 05:13 UTC

1 30934U 99025AZY 26257.21786506  .00000759  00000-0  91074-3 0  9996
2 30934  98.7440 105.4276 0339884  98.8955 265.0814 13.47504589954175

Отслеживайте FENGYUN 1C DEB в реальном времени с AllMySat

Download on the App Store